FW5906 Weather Reports


time (UTC)temp
C
wind
direction
speed
KPH
gust
KPH
rain 1hr
cm
rain 24hr
cm
rain mn
cm
humidity
%
barometer
mb
20260504193111 -66 327 0.0 0.0 2.24 2.54 2.54 1014.7
20260504191555 -67 10 0.0 0.0 2.01 2.29 2.29 1015.0
20260504190113 -67 22 0.0 0.0 1.65 1.93 1.93 1015.0
20260504184556 -67 32 0.0 0.0 1.14 1.24 1.24 1015.2
20260504183043 -67 327 0.0 0.0 0.30 0.30 0.30 1015.1
20260504181533 -67 28 0.0 0.0 0.28 0.28 0.28 1015.3
20260504180028 -67 327 0.0 0.0 0.28 0.28 0.28 1015.4
20260504174526 -67 327 0.0 0.0 0.10 0.10 0.10 1015.7
20260504173033 -67 15 0.0 0.0 0.00 0.00 0.00 1015.6
20260504171524 -67 327 0.0 0.0 0.00 0.00 0.00 1015.7
20260504110119 -17 0.0 0.0 0.00 0.00 0.00 1014.4
20260504081529 -67 327 0.0 0.0 0.00 0.00 0.00 1014.1
20260504050018 -67 327 0.0 0.0 0.00 0.00 0.00 1016.2
20260504044532 -67 327 0.0 0.0 0.00 0.00 0.00 1016.2
20260504043040 -67 327 0.0 0.0 0.00 0.00 0.00 1016.3
20260504041535 -67 327 0.0 0.0 0.00 0.00 0.00 1016.3
20260504040002 -67 327 0.0 0.0 0.00 0.00 0.00 1016.4
20260504034604 -67 327 0.0 0.0 0.00 0.00 0.00 1016.6
20260504033101 -67 327 0.0 0.0 0.00 0.00 0.00 1016.7
20260504031519 -67 327 0.0 0.0 0.00 0.00 0.00 1016.6
20260504030014 -67 327 0.0 0.0 0.00 0.00 0.00 1016.7
20260504024515 -67 327 0.0 0.0 0.00 0.00 0.00 1016.8
20260504023003 -67 327 0.0 0.0 0.00 0.00 0.00 1016.6
20260504021559 -67 327 0.0 0.0 0.00 0.00 0.00 1016.4
20260504020054 -67 327 0.0 0.0 0.00 0.00 0.00 1016.2
20260504014549 -67 327 0.0 0.0 0.00 0.00 0.00 1016.1
20260504013049 -67 327 0.0 0.0 0.00 0.00 0.00 1015.6
20260504011540 -67 327 0.0 0.0 0.00 0.00 0.00 1015.2
20260504010051 -67 327 0.0 0.0 0.00 0.00 0.00 1015.1
20260504004510 -67 327 0.0 0.0 0.00 0.00 0.00 1015.1
20260504003006 -67 327 0.0 0.0 0.00 0.00 0.00 1014.9
20260504001546 -67 327 0.0 0.0 0.00 0.00 0.00 1014.8
20260504000040 -67 327 0.0 0.0 0.00 0.00 0.00 1014.5
20260503234534 -67 327 0.0 0.0 0.00 0.00 0.00 1014.2
20260503233034 -67 327 0.0 0.0 0.00 0.00 0.00 1014.0
20260503231532 -67 327 0.0 0.0 0.00 0.00 0.00 1014.0
20260503230032 -67 327 0.0 0.0 0.00 0.00 0.00 1014.0
20260503224529 -67 327 0.0 0.0 0.00 0.00 0.00 1014.0
20260503223028 -67 327 0.0 0.0 0.00 0.00 0.00 1014.0
20260503221537 -67 327 0.0 0.0 0.00 0.00 0.00 1014.0
20260503220028 -67 327 0.0 0.0 0.00 0.00 0.00 1014.0
20260503214526 -67 327 0.0 0.0 0.00 0.00 0.00 1014.0
20260503213031 -67 327 0.0 0.0 0.00 0.00 0.00 1014.1
20260503211525 -67 327 0.0 0.0 0.00 0.00 0.00 1014.2
20260503210025 -67 327 0.0 0.0 0.00 0.00 0.00 1014.1
20260503204525 -67 327 0.0 0.0 0.00 0.00 0.00 1014.1
20260503203022 -67 327 0.0 0.0 0.00 0.00 0.00 1014.3
20260503201528 -67 327 0.0 0.0 0.00 0.00 0.00 1014.4
20260503200030 -67 327 0.0 0.0 0.00 0.00 0.00 1014.5
20260503194526 -67 327 0.0 0.0 0.00 0.00 0.00 1014.6